[[{"header":{"parameterUnit":"m.s-1","parameterCategory":1,"la1":30.2992,"la2":30.254,"lo1":-89.0895,"lo2":-89.0443,"dy":0.0025,"dx":0.0025,"nx":19,"ny":19,"refTime":"2026-03-23T21:00:00:Z","depth":0,"parameterNumber":2,"parameterNumberName":"U-component_of_WINDS"},"data":[0,0,0,-2.1439,-2.1441,-2.1517,-2.1517,-2.1623,-2.1624,0,0,0,0,0,0,0,0,0,0,0,-2.142,-2.1421,-2.1439,-2.1441,-2.1517,-2.1517,-2.1622,-2.1624,0,0,0,0,0,0,0,0,0,0,0,-2.142,-2.1421,-2.1422,-2.1441,-2.1517,-2.1517,-2.1622,-2.1562,0,0,0,0,0,0,0,0,0,0,-2.1486,-2.1473,-2.1421,-2.1422,-2.1442,-2.1517,-2.1517,-2.1559,-2.1566,-2.1591,0,-2.1614,0,-2.1621,-2.1631,-2.1631,0,0,0,-2.1438,-2.1468,-2.1485,-2.1422,-2.1442,-2.1517,-2.1482,-2.1563,-2.157,-2.16,-2.1616,-2.1619,-2.1622,-2.1632,-2.1632,-2.1788,-2.1789,0,0,-2.1433,-2.1436,-2.1479,-2.149,-2.1478,-2.1479,-2.1484,-2.1567,-2.1585,-2.1616,-2.1622,-2.1624,-2.1633,-2.1633,-2.1788,-2.1789,0,0,0,-2.1423,-2.1434,-2.1448,-2.1486,-2.1499,-2.1482,-2.1487,-2.1581,-2.1585,-2.1623,-2.1625,-2.1633,-2.1635,-2.1787,-2.1788,-2.1835,0,0,0,-2.1421,-2.1428,-2.1447,-2.1449,-2.1497,-2.1541,-2.1499,-2.158,-2.1589,-2.1625,-2.1633,-2.1636,-2.1786,-2.1787,-2.1832,-2.1858,0,0,0,-2.1414,-2.1427,-2.1439,-2.1449,-2.1482,-2.1539,-2.1549,-2.1582,-2.1591,-2.1632,-2.1636,-2.1785,-2.1787,-2.1829,-2.1853,-2.1901,0,0,0,-2.1408,-2.148,-2.144,-2.1521,-2.1482,-2.1567,-2.1548,-2.1612,-2.1652,-2.1634,-2.1786,-2.1788,-2.1828,-2.185,-2.1898,-2.1944,-2.1962,0,0,-2.15,-2.1491,-2.1538,-2.1505,-2.1599,-2.1555,-2.1656,-2.169,-2.1691,-2.1756,-2.176,-2.1833,-2.1852,-2.19,-2.2063,-2.2078,0,0,0,-2.1569,-2.1604,-2.1628,-2.1666,-2.1694,-2.172,-2.1738,-2.1751,-2.1806,-2.1725,-2.1862,-2.1874,-2.1902,-2.1924,-2.1936,-2.1961,-2.1797,-2.1797,-2.1797,-2.1706,-2.1703,-2.1782,-2.1789,-2.1826,-2.1844,-2.1875,-2.1895,-2.1881,-2.1913,-2.1933,-2.2032,-2.2058,-2.2068,-2.2093,-2.1955,-2.1955,-2.1956,-2.1956,-2.1843,-2.1892,-2.1871,-2.1941,-2.1937,-2.1996,-2.2015,-2.2003,-2.2058,-2.2017,-2.2042,-2.1999,-2.2084,-2.2107,-2.1959,-2.1959,-2.1958,-2.1958,-2.1958,-2.1935,-2.1958,-2.1971,-2.2027,-2.2071,-2.2074,-2.2127,-2.2122,-2.2117,-2.2141,-2.2162,-2.2162,-2.2162,-2.2151,-2.2151,-2.2152,-2.2152,-2.2152,-2.2152,-2.2025,-2.2039,-2.2084,-2.2119,-2.2144,-2.2175,-2.2193,-2.2217,-2.2242,-2.2234,-2.2234,-2.2218,-2.2092,-2.2062,-2.2158,-2.2157,-2.2156,-2.2156,-2.2155,-2.2169,-2.2136,-2.2206,-2.2231,-2.2272,-2.2316,-2.2307,-2.2356,-2.2375,-2.2402,-2.2379,-2.2286,-2.2277,-2.2267,-2.2242,-2.2378,-2.2378,-2.2378,-2.2378,-2.2248,-2.2242,-2.2313,-2.2353,-2.2391,-2.239,-2.2471,-2.2485,-2.2495,-2.2507,-2.2485,-2.2451,-2.2441,-2.2437,-2.2423,-2.24,-2.2574,-2.2575,-2.2575,-2.2338,-2.2335,-2.2405,-2.2414,-2.2445,-2.2473,-2.2549,-2.2595,-2.2599,-2.2583,-2.2516,-2.2508,-2.2452,-2.2434,-2.2419,-2.2397,-2.2354,0,0]},{"header":{"parameterUnit":"m.s-1","parameterCategory":1,"la1":30.2992,"la2":30.254,"lo1":-89.0895,"lo2":-89.0443,"dy":0.0025,"dx":0.0025,"nx":19,"ny":19,"refTime":"2026-03-23T21:00:00:Z","depth":0,"parameterNumber":3,"parameterNumberName":"V-component_of_WINDS"},"data":[0,0,0,-3.1184,-3.1185,-3.1226,-3.1226,-3.1283,-3.1284,0,0,0,0,0,0,0,0,0,0,0,-3.1176,-3.1176,-3.1184,-3.1185,-3.1226,-3.1226,-3.1283,-3.1284,0,0,0,0,0,0,0,0,0,0,0,-3.1176,-3.1176,-3.1177,-3.1185,-3.1226,-3.1226,-3.1283,-3.125,0,0,0,0,0,0,0,0,0,0,-3.1209,-3.1206,-3.1176,-3.1177,-3.1185,-3.1226,-3.1226,-3.1248,-3.1252,-3.1267,0,-3.1283,0,-3.1284,-3.1288,-3.1288,0,0,0,-3.1181,-3.1203,-3.1211,-3.1177,-3.1186,-3.1226,-3.1206,-3.125,-3.1254,-3.1272,-3.1284,-3.1286,-3.1285,-3.1288,-3.1289,-3.1392,-3.1393,0,0,-3.1179,-3.1185,-3.1208,-3.1214,-3.1209,-3.1205,-3.1208,-3.1253,-3.1265,-3.1284,-3.1287,-3.1286,-3.1289,-3.1289,-3.1392,-3.1393,0,0,0,-3.1175,-3.1184,-3.119,-3.1212,-3.1219,-3.1206,-3.1209,-3.1263,-3.1265,-3.1287,-3.1287,-3.1289,-3.129,-3.1391,-3.1392,-3.1433,0,0,0,-3.1173,-3.1181,-3.1189,-3.1193,-3.1218,-3.1242,-3.1219,-3.1262,-3.1266,-3.1287,-3.1289,-3.1291,-3.139,-3.1392,-3.143,-3.1451,0,0,0,-3.1172,-3.1181,-3.1189,-3.1194,-3.1212,-3.1241,-3.1245,-3.1262,-3.1266,-3.1288,-3.1291,-3.139,-3.1391,-3.1428,-3.1447,-3.1482,0,0,0,-3.1171,-3.1223,-3.119,-3.1246,-3.1211,-3.1266,-3.1245,-3.1284,-3.1308,-3.129,-3.139,-3.1392,-3.1427,-3.1444,-3.1479,-3.1513,-3.1527,0,0,-3.124,-3.1231,-3.1264,-3.1236,-3.1298,-3.1259,-3.1326,-3.1341,-3.1336,-3.1373,-3.1376,-3.1431,-3.1447,-3.1481,-3.1603,-3.1615,0,0,0,-3.1288,-3.1312,-3.1327,-3.1351,-3.1364,-3.1377,-3.138,-3.1386,-3.1418,-3.1357,-3.1451,-3.1461,-3.1481,-3.1497,-3.1506,-3.1524,-3.1399,-3.1399,-3.1399,-3.1394,-3.1387,-3.1441,-3.1439,-3.1462,-3.1465,-3.1483,-3.1491,-3.1474,-3.1497,-3.1509,-3.1584,-3.1603,-3.161,-3.1628,-3.1524,-3.1525,-3.1525,-3.1525,-3.1495,-3.1529,-3.1508,-3.1553,-3.1544,-3.1581,-3.1586,-3.1574,-3.1607,-3.1574,-3.1591,-3.1558,-3.1623,-3.1639,-3.1528,-3.1527,-3.1527,-3.1527,-3.1526,-3.1566,-3.1581,-3.1587,-3.1621,-3.1648,-3.1642,-3.1676,-3.1665,-3.1655,-3.1672,-3.1684,-3.1684,-3.1683,-3.1678,-3.1679,-3.1679,-3.1679,-3.1679,-3.1679,-3.1637,-3.1643,-3.1673,-3.1692,-3.1707,-3.1724,-3.1728,-3.1741,-3.1753,-3.1742,-3.1742,-3.1725,-3.1631,-3.1608,-3.1683,-3.1683,-3.1682,-3.1682,-3.1682,-3.1745,-3.1719,-3.1767,-3.1781,-3.1802,-3.183,-3.1816,-3.1844,-3.1853,-3.187,-3.1849,-3.178,-3.177,-3.1762,-3.1744,-3.1849,-3.1849,-3.1849,-3.1849,-3.1806,-3.18,-3.1847,-3.1871,-3.1892,-3.1885,-3.1938,-3.1941,-3.194,-3.1945,-3.1928,-3.1902,-3.1894,-3.1889,-3.1878,-3.1861,-3.1994,-3.1994,-3.1994,-3.1873,-3.1869,-3.1917,-3.1917,-3.1933,-3.1946,-3.1996,-3.2024,-3.2016,-3.2,-3.1949,-3.1943,-3.1901,-3.1887,-3.1871,-3.1855,-3.1823,0,0]}]]